Terug naar catalogus

ACCENTURE-1

ActiefWetenschapSSO
NORAD 66767·PAYLOAD·🇬🇧 United Kingdom

Gelanceerd Nov 28, 2025 vanaf Vandenberg Space Force Base

Loading…

Volgende Passages (komende 24 uur)

TLE

VersSource: Space-Track

Epoch: Sep 14, 2026, 10:50 UTC

1 66767U 25276DF  26257.45153353  .00002684  00000-0  12589-3 0  9993
2 66767  97.4088 329.5467 0001190 114.7789 245.3570 15.20521317 43992

Volg ACCENTURE-1 in realtime met AllMySat

Download on the App Store